Radioactive Concentration measured by Seawater Radiation Monitor near Fukushima Daiichi Nuclear Power Station
Date,Time,Cs137(Bq/L),Cs134(Bq/L),Total β(Bq/L)
2021/02/15,00:00,-,-,ND
2021/02/15,00:10,-,-,12
2021/02/15,00:20,-,-,8.9
2021/02/15,00:30,-,-,11
2021/02/15,00:40,-,-,11
2021/02/15,00:50,-,-,11
2021/02/15,01:00,-,-,9.7
2021/02/15,01:10,-,-,9.6
2021/02/15,01:20,-,-,12
2021/02/15,01:30,-,-,12
2021/02/15,01:40,-,-,12
2021/02/15,01:50,-,-,13
2021/02/15,02:00,-,-,15
2021/02/15,02:10,-,-,14
2021/02/15,02:20,-,-,16
2021/02/15,02:30,-,-,16
2021/02/15,02:40,-,-,16
2021/02/15,02:50,-,-,15
2021/02/15,03:00,-,-,16
2021/02/15,03:10,-,-,14
2021/02/15,03:20,-,-,14
2021/02/15,03:30,-,-,11
2021/02/15,03:40,-,-,9.2
2021/02/15,03:50,-,-,9.9
2021/02/15,04:00,-,-,10
2021/02/15,04:10,-,-,11
2021/02/15,04:20,-,-,10
2021/02/15,04:30,-,-,12
2021/02/15,04:40,-,-,12
2021/02/15,04:50,-,-,10
2021/02/15,05:00,-,-,9.7
2021/02/15,05:10,-,-,9.9
2021/02/15,05:20,-,-,10
2021/02/15,05:30,-,-,11
2021/02/15,05:40,-,-,11
2021/02/15,05:50,-,-,11
2021/02/15,06:00,-,-,9.6
2021/02/15,06:10,-,-,ND
2021/02/15,06:20,-,-,ND
2021/02/15,06:30,-,-,ND
2021/02/15,06:40,-,-,ND
2021/02/15,06:50,-,-,ND
2021/02/15,07:00,-,-,ND
2021/02/15,07:10,-,-,12
2021/02/15,07:20,-,-,14
2021/02/15,07:30,-,-,17
2021/02/15,07:40,-,-,15
2021/02/15,07:50,-,-,16
2021/02/15,08:00,-,-,16
2021/02/15,08:10,-,-,16
2021/02/15,08:20,-,-,14
2021/02/15,08:30,-,-,13
2021/02/15,08:40,-,-,13
2021/02/15,08:50,-,-,13
2021/02/15,09:00,-,-,14
2021/02/15,09:10,-,-,12
2021/02/15,09:20,-,-,14
2021/02/15,09:30,-,-,13
2021/02/15,09:40,-,-,16
2021/02/15,09:50,-,-,12
2021/02/15,10:00,-,-,9.7
2021/02/15,10:10,-,-,12
2021/02/15,10:20,-,-,13
2021/02/15,10:30,-,-,12
2021/02/15,10:40,-,-,10
2021/02/15,10:50,-,-,13
2021/02/15,11:00,-,-,15
2021/02/15,11:10,-,-,14
2021/02/15,11:20,-,-,13
2021/02/15,11:30,-,-,14
2021/02/15,11:40,-,-,12
2021/02/15,11:50,-,-,13
2021/02/15,12:00,-,-,14
2021/02/15,12:10,-,-,14
2021/02/15,12:20,-,-,12
2021/02/15,12:30,-,-,11
2021/02/15,12:40,-,-,14
2021/02/15,12:50,-,-,11
2021/02/15,13:00,-,-,8.9
2021/02/15,13:10,-,-,11
2021/02/15,13:20,-,-,14
2021/02/15,13:30,-,-,16
2021/02/15,13:40,-,-,14
2021/02/15,13:50,-,-,17
2021/02/15,14:00,-,-,17
2021/02/15,14:10,-,-,16
2021/02/15,14:20,-,-,16
2021/02/15,14:30,-,-,14
2021/02/15,14:40,-,-,13
2021/02/15,14:50,-,-,14
2021/02/15,15:00,-,-,14
2021/02/15,15:10,-,-,14
2021/02/15,15:20,-,-,13
2021/02/15,15:30,-,-,16
2021/02/15,15:40,-,-,17
2021/02/15,15:50,-,-,19
2021/02/15,16:00,-,-,22
2021/02/15,16:10,-,-,25
2021/02/15,16:20,-,-,26
2021/02/15,16:30,-,-,24
2021/02/15,16:40,-,-,23
2021/02/15,16:50,-,-,18
2021/02/15,17:00,-,-,15
2021/02/15,17:10,-,-,9.6
2021/02/15,17:20,-,-,10
2021/02/15,17:30,-,-,12
2021/02/15,17:40,-,-,17
2021/02/15,17:50,-,-,20
2021/02/15,18:00,-,-,22
2021/02/15,18:10,-,-,24
2021/02/15,18:20,-,-,24
2021/02/15,18:30,-,-,24
2021/02/15,18:40,-,-,23
2021/02/15,18:50,-,-,23
2021/02/15,19:00,-,-,23
2021/02/15,19:10,-,-,25
2021/02/15,19:20,-,-,24
2021/02/15,19:30,-,-,21
2021/02/15,19:40,-,-,19
2021/02/15,19:50,-,-,18
2021/02/15,20:00,-,-,18
2021/02/15,20:10,-,-,16
2021/02/15,20:20,-,-,17
2021/02/15,20:30,-,-,20
2021/02/15,20:40,-,-,20
2021/02/15,20:50,-,-,17
2021/02/15,21:00,-,-,20
2021/02/15,21:10,-,-,21
2021/02/15,21:20,-,-,22
2021/02/15,21:30,-,-,18
2021/02/15,21:40,-,-,19
2021/02/15,21:50,-,-,22
2021/02/15,22:00,-,-,18
2021/02/15,22:10,-,-,22
2021/02/15,22:20,-,-,22
2021/02/15,22:30,-,-,22
2021/02/15,22:40,-,-,22
2021/02/15,22:50,-,-,20
2021/02/15,23:00,-,-,22
2021/02/15,23:10,-,-,19
2021/02/15,23:20,-,-,19
2021/02/15,23:30,-,-,21
2021/02/15,23:40,-,-,22
2021/02/15,23:50,-,-,22
